This is the latest recevied weather packets stored in our database for station/object KO4DYK. If no packets are shown the sender has not sent any weather packets the latest 10 day(s).
| Time | Temp. | Humidity | Pressure | Rain* | Wind** | Luminosity | Snow |
|---|---|---|---|---|---|---|---|
| 1777901023 | 19.44° C | 71% | 1018.8 hPa | 0 mm | - | 303 W/m² | - |
| 1777900720 | 19.44° C | 71% | 1018.6 hPa | 0 mm | - | 225 W/m² | - |
| 1777900417 | 18.89° C | 72% | 1018.6 hPa | 0 mm | - | 255 W/m² | - |
| 1777900114 | 18.33° C | 73% | 1018.7 hPa | 0 mm | - | 225 W/m² | - |
| 1777899811 | 17.78° C | 74% | 1018.6 hPa | 0 mm | - | 107 W/m² | - |
| 1777899508 | 17.78° C | 74% | 1018.6 hPa | 0 mm | - | 81 W/m² | - |
| 1777899206 | 17.78° C | 74% | 1018.6 hPa | 0 mm | - | 75 W/m² | - |
| 1777898903 | 17.78° C | 74% | 1018.6 hPa | 0 mm | - | 76 W/m² | - |
| 1777898600 | 17.78° C | 74% | 1018.4 hPa | 0 mm | - | 71 W/m² | - |
| 1777898297 | 17.22° C | 74% | 1018.4 hPa | 0 mm | - | 78 W/m² | - |
| 1777897994 | 17.22° C | 74% | 1018.4 hPa | 0 mm | - | 76 W/m² | - |
| 1777897690 | 17.22° C | 74% | 1018.4 hPa | 0 mm | - | 68 W/m² | - |
| 1777897387 | 16.67° C | 75% | 1018.4 hPa | 0 mm | - | 60 W/m² | - |
| 1777897082 | 16.11° C | 77% | 1018.3 hPa | 0 mm | - | 57 W/m² | - |
| 1777896779 | 16.11° C | 77% | 1018.4 hPa | 0 mm | - | 53 W/m² | - |
| 1777896477 | 16.11° C | 77% | 1018.2 hPa | 0 mm | - | 47 W/m² | - |
| 1777896174 | 15.56° C | 77% | 1018.4 hPa | 0 mm | - | 39 W/m² | - |
| 1777895872 | 15.56° C | 77% | 1018.4 hPa | 0 mm | - | 34 W/m² | - |
| 1777895569 | 15.56° C | 77% | 1018.2 hPa | 0 mm | - | 29 W/m² | - |
| 1777895267 | 15.56° C | 77% | 1018.2 hPa | 0 mm | - | 25 W/m² | - |
| 1777894964 | 15.56° C | 77% | 1018 hPa | 0 mm | - | 21 W/m² | - |
| 1777894661 | 15.56° C | 77% | 1018 hPa | 0 mm | - | 19 W/m² | - |
| 1777894358 | 15.56° C | 77% | 1018.2 hPa | 0 mm | - | 16 W/m² | - |
| 1777894056 | 15.56° C | 76% | 1017.9 hPa | 0 mm | - | 12 W/m² | - |
| 1777893751 | 15.56° C | 76% | 1018.1 hPa | 0 mm | - | 10 W/m² | - |
* Rain latest hour (hover to see other rain measurements)
** Current wind speed in m/s (hover to see current wind gust speed)